Weather in Vesely

Russia / Republic of Adygea     44°16′09″N   40°17′09″E
temp.,
°C
wind,
m/s
gust,
m/s
humid.,
%
clouds,
%
prec.,
mm/h
press.,
hPa
HPBL,
m
2 december, thu
thu200:00+1sw249431 0.4 1011211
03:00+1wnw1499100 1.4 1012202
06:00+2wnw269897 2.1 1014425
09:00+2wnw249475 2.4 1018321
12:00+5wnw137161 0.1 1018883
15:00+6nne02625 0.1 1018690
18:00+1s22872 0.0 102037
21:000s22824 0.0 102142
3 december, fri
fri300:000s22755 0.0 102037
03:000s227394 0.0 102027
06:00+1s2272100 0.0 101925
09:00+3ssw226997 0.0 101933
12:00+9nw11496 0.0 1017261
15:00+9n11605 0.0 101724
18:00+3s22774 0.0 101925
21:00+2s33695 0.0 102037
4 december, sat
sat400:00+2s3367100 0.0 102144
03:00+3s336672 0.0 102045
06:00+3s336710 0.0 101941
09:00+5s336637 0.0 101950
12:00+11ssw125541 0.0 1016149
15:00+11ssw116669 0.0 101420
18:00+6s327492 0.0 101632
21:00+5s3270100 0.0 101537
5 december, sun
sun500:00+6s2269100 0.0 101434
03:00+6s2268100 0.0 101425
06:00+6ssw1168100 0.0 101411
09:00+7se2268100 0.0 101549
12:00+10ssw0165100 0.0 101486
15:00+10se1170100 0.0 101336
18:00+6ssw227893 0.0 101617
21:00+5s227653 0.0 101721
6 december, mon
mon600:00+4s227225 0.0 101826
03:00+4s227028 0.0 101931
06:00+4s22709 0.0 102026
09:00+6s23655 0.0 102050
12:00+12ssw01485 0.0 1018319
15:00+12ne105737 0.0 101823
18:00+7s2279100 0.0 102129
21:00+6s227588 0.0 102133